Terminal Aerodrome Forecast
Issued by NWS

Home | Current Version | Previous Version | Text Only | Print | Product List | Glossary On
Versions: 1 2 3 4 5 6 7 8 9 10 11 12 13 14 15 16
000
FTUS43 KEAX 011100
TAFSTJ
TAF
KSTJ 011120Z 0112/0212 19012KT P6SM VCSH BKN110
     FM011600 10008KT P6SM SCT100
     FM020000 05006KT P6SM VCTS SCT040CB BKN100
     FM020300 04010KT P6SM BKN025=

USA.gov is the U.S. government's official web portal to all federal, state and local government web resources and services.